DW5479 Weather Reports


Display with metric or nautical units.
time (UTC)temp
F
wind
direction
speed
MPH
gust
MPH
rain 1hr
in
rain 24hr
in
rain mn
in
humidity
%
barometer
mb
20260508133056 62 179 3.0 6.0 0.00 0.00 0.00 84 1012.5
20260508131513 61 158 1.0 4.0 0.00 0.00 0.00 84 1012.3
20260508130045 61 160 1.0 4.0 0.00 0.00 0.00 85 1012.5
20260508124605 61 185 2.0 6.0 0.00 0.00 0.00 85 1012.5
20260508123025 61 182 0.0 4.0 0.00 0.00 0.00 85 1012.6
20260508121532 61 184 2.0 4.0 0.00 0.00 0.00 85 1013.0
20260508120046 61 193 2.0 8.0 0.00 0.00 0.00 85 1012.5
20260508114604 61 187 2.0 5.0 0.00 0.00 0.00 85 1012.2
20260508113040 61 141 3.0 7.0 0.00 0.00 0.00 84 1012.2
20260508111554 62 140 1.0 4.0 0.00 0.00 0.00 82 1012.9
20260508110005 62 155 0.0 5.0 0.00 0.00 0.00 82 1013.2
20260508104535 62 162 1.0 5.0 0.00 0.00 0.00 82 1012.3
20260508103005 62 149 2.0 5.0 0.00 0.00 0.00 81 1012.1
20260508101508 62 170 1.0 6.0 0.00 0.00 0.00 80 1012.1
20260508100022 62 168 1.0 5.0 0.00 0.00 0.00 80 1012.2
20260508094544 62 154 2.0 4.0 0.00 0.00 0.00 80 1013.0
20260508093008 62 203 1.0 5.0 0.00 0.00 0.00 80 1012.8
20260508091518 62 165 2.0 4.0 0.00 0.00 0.00 79 1012.6
20260508090045 62 169 1.0 2.0 0.00 0.00 0.00 78 1013.0
20260508084548 62 165 0.0 4.0 0.00 0.00 0.00 78 1013.1
20260508083011 62 191 1.0 6.0 0.00 0.00 0.00 78 1012.8
20260508081553 62 144 4.0 7.0 0.00 0.00 0.00 78 1012.7
20260508080007 62 150 2.0 5.0 0.00 0.00 0.00 79 1012.7
20260508074526 62 170 1.0 7.0 0.00 0.00 0.00 79 1013.2
20260508073052 62 166 3.0 7.0 0.00 0.00 0.00 78 1013.5
20260508071556 63 147 0.0 4.0 0.00 0.00 0.00 78 1013.2
20260508070009 63 175 0.0 5.0 0.00 0.00 0.00 77 1013.5
20260508064523 63 184 3.0 6.0 0.00 0.00 0.00 77 1013.0
20260508063109 63 157 1.0 7.0 0.00 0.00 0.00 77 1013.2
20260508061509 63 158 3.0 9.0 0.00 0.00 0.00 76 1012.9
20260508060022 63 184 2.0 8.0 0.00 0.00 0.00 77 1013.4
20260508054551 63 158 2.0 5.0 0.00 0.00 0.00 77 1014.6
20260508053021 63 148 2.0 6.0 0.00 0.00 0.00 77 1014.6
20260508051559 63 153 1.0 4.0 0.00 0.00 0.00 76 1015.0
20260508050057 63 171 1.0 5.0 0.00 0.00 0.00 76 1014.0
20260508044508 63 214 4.0 9.0 0.00 0.00 0.00 76 1012.6
20260508043127 63 175 4.0 8.0 0.00 0.00 0.00 76 1012.5
20260508041547 64 180 4.0 9.0 0.00 0.00 0.00 75 1013.2
20260508040002 64 217 4.0 7.0 0.00 0.00 0.00 75 1013.2
20260508034522 64 164 2.0 10.0 0.00 0.00 0.00 75 1014.0
20260508033042 64 164 4.0 9.0 0.00 0.00 0.00 75 1014.2
20260508031506 64 193 3.0 7.0 0.00 0.00 0.00 76 1014.0
20260508030035 64 162 3.0 6.0 0.00 0.00 0.00 77 1013.7
20260508024613 64 193 1.0 4.0 0.00 0.00 0.00 78 1013.6
20260508023014 64 164 0.0 4.0 0.00 0.00 0.00 77 1013.3
20260508021529 64 168 1.0 4.0 0.00 0.00 0.00 76 1013.0
20260508020049 65 168 0.0 2.0 0.00 0.00 0.00 75 1013.0
20260508014520 65 174 1.0 7.0 0.00 0.00 0.00 74 1012.1
20260508013033 65 165 4.0 8.0 0.00 0.00 0.00 73 1011.9
20260508011607 65 188 3.0 9.0 0.00 0.00 0.00 72 1011.7
20260508010022 65 185 4.0 10.0 0.00 0.00 0.00 72 1011.5
20260508004556 66 163 5.0 11.0 0.00 0.00 0.00 71 1012.0
20260508003019 66 152 5.0 11.0 0.00 0.00 0.00 70 1012.5
20260508001542 66 180 6.0 14.0 0.00 0.00 0.00 69 1012.9
20260508000052 66 165 3.0 8.0 0.00 0.00 0.00 70 1013.4
20260507234502 66 173 5.0 10.0 0.00 0.00 0.00 69 1013.4
20260507233022 66 160 3.0 10.0 0.00 0.00 0.00 69 1013.8
20260507231551 67 177 3.0 12.0 0.00 0.00 0.00 70 1013.3
20260507230018 67 176 4.0 12.0 0.00 0.00 0.00 69 1013.7
20260507224533 67 173 3.0 9.0 0.00 0.00 0.00 69 1013.8
20260507223048 67 141 4.0 10.0 0.00 0.00 0.00 69 1013.9
20260507221517 67 172 7.0 12.0 0.00 0.00 0.00 70 1014.2
20260507220054 67 165 4.0 11.0 0.00 0.00 0.00 72 1014.1
20260507214510 67 156 8.0 15.0 0.00 0.00 0.00 72 1014.3
20260507213043 68 188 5.0 16.0 0.00 0.00 0.00 73 1014.2
20260507211602 69 178 7.0 13.0 0.00 0.00 0.00 73 1014.0
20260507210007 68 146 8.0 15.0 0.00 0.00 0.00 71 1013.8
20260507204524 69 178 5.0 14.0 0.00 0.00 0.00 73 1013.6
20260507203108 69 163 6.0 14.0 0.00 0.00 0.00 71 1013.9
20260507201554 69 144 5.0 12.0 0.00 0.00 0.00 72 1013.8
20260507200012 68 148 4.0 13.0 0.00 0.00 0.00 75 1014.2
20260507194555 67 154 7.0 11.0 0.00 0.00 0.00 76 1014.1
20260507193012 66 132 6.0 14.0 0.00 0.00 0.00 76 1013.6
20260507191522 66 161 6.0 12.0 0.00 0.00 0.00 77 1014.4
20260507190046 66 154 7.0 12.0 0.00 0.00 0.00 77 1014.6
20260507184557 65 189 5.0 11.0 0.00 0.00 0.00 78 1015.0
20260507183018 65 179 6.0 11.0 0.00 0.00 0.00 79 1015.6
20260507181546 65 153 4.0 11.0 0.00 0.00 0.00 78 1016.0
20260507180006 65 158 5.0 11.0 0.00 0.00 0.00 78 1015.5
20260507174522 64 166 5.0 13.0 0.00 0.00 0.00 80 1015.7
20260507173110 63 164 7.0 11.0 0.00 0.00 0.00 81 1016.0
20260507171511 62 120 7.0 13.0 0.00 0.00 0.00 82 1015.9
20260507170040 61 161 6.0 14.0 0.00 0.00 0.00 83 1016.6
20260507164551 61 134 6.0 13.0 0.00 0.00 0.00 83 1016.4
20260507163002 61 177 6.0 14.0 0.00 0.00 0.00 83 1016.3
20260507161519 61 146 5.0 16.0 0.00 0.00 0.00 83 1016.2
20260507160035 61 165 5.0 17.0 0.00 0.00 0.00 84 1016.1
20260507154547 61 171 7.0 18.0 0.00 0.00 0.00 84 1016.0
20260507153101 61 172 8.0 19.0 0.00 0.00 0.00 84 1015.8
20260507151527 62 162 7.0 17.0 0.00 0.00 0.00 83 1015.6
20260507150056 61 174 7.0 14.0 0.00 0.00 0.00 84 1015.3
20260507144526 60 126 7.0 15.0 0.00 0.00 0.00 85 1015.6
20260507143101 60 148 9.0 17.0 0.00 0.00 0.00 85 1015.5
20260507141537 60 174 7.0 17.0 0.00 0.00 0.00 86 1015.3
20260507140043 60 181 4.0 13.0 0.00 0.00 0.00 86 1015.3
20260507134557 60 186 7.0 13.0 0.00 0.00 0.00 85 1015.3